カタログに戻る

COSMOS 249 DEB

運用中UNKNOWN
NORAD 3506·DEBRIS·🇷🇺 Russia

打ち上げ Oct 20, 1968 から Baikonur Cosmodrome

Loading…

次のパス (今後24時間)

TLE

最新Source: Space-Track

元期: Sep 14, 2026, 19:05 UTC

1 03506U 68091C   26257.79547382 -.00000006  00000-0  45453-4 0  9997
2 03506  62.3723  39.1368 0940539 282.4829  67.2630 12.91135205718058

AllMySatでCOSMOS 249 DEBをリアルタイム追跡

Download on the App Store